TimeMDT,TemperatureF,Dew PointF,Humidity,Sea Level PressureIn,VisibilityMPH,Wind Direction,Wind SpeedMPH,Gust SpeedMPH,PrecipitationIn,Events,Conditions,WindDirDegrees,DateUTC
12:53 AM,43.0,39.0,86,30.09,10.0,West,8.1,-,0.01,Rain,Light Rain,260,2013-10-21 06:53:00
1:53 AM,42.1,39.0,89,30.10,10.0,West,8.1,-,0.00,,Overcast,270,2013-10-21 07:53:00
2:53 AM,41.0,39.0,93,30.11,10.0,West,6.9,-,N/A,,Mostly Cloudy,280,2013-10-21 08:53:00
3:53 AM,39.0,37.0,93,30.11,10.0,West,10.4,-,N/A,,Clear,270,2013-10-21 09:53:00
4:53 AM,37.0,35.1,93,30.13,10.0,West,9.2,-,N/A,,Clear,280,2013-10-21 10:53:00
5:53 AM,36.0,34.0,93,30.16,10.0,West,9.2,-,N/A,,Clear,270,2013-10-21 11:53:00
6:53 AM,33.1,33.1,100,30.17,9.0,NW,6.9,-,N/A,,Clear,320,2013-10-21 12:53:00
7:53 AM,36.0,35.1,97,30.17,10.0,WSW,3.5,-,N/A,,Clear,250,2013-10-21 13:53:00
8:53 AM,41.0,37.9,89,30.18,10.0,West,4.6,-,N/A,,Clear,270,2013-10-21 14:53:00
9:53 AM,45.0,39.0,80,30.19,10.0,WNW,6.9,-,N/A,,Clear,290,2013-10-21 15:53:00
10:53 AM,50.0,39.9,68,30.17,10.0,West,8.1,-,N/A,,Clear,270,2013-10-21 16:53:00
11:53 AM,54.0,37.0,53,30.15,10.0,West,9.2,-,N/A,,Clear,260,2013-10-21 17:53:00
12:53 PM,57.0,33.1,40,30.10,10.0,WSW,10.4,-,N/A,,Clear,250,2013-10-21 18:53:00
1:53 PM,59.0,28.9,32,30.07,10.0,WSW,9.2,-,N/A,,Clear,250,2013-10-21 19:53:00
2:53 PM,59.0,28.0,31,30.07,10.0,West,6.9,-,N/A,,Clear,280,2013-10-21 20:53:00
3:53 PM,60.1,27.0,28,30.06,10.0,NNW,6.9,-,N/A,,Clear,330,2013-10-21 21:53:00
4:53 PM,60.1,27.0,28,30.06,10.0,Calm,Calm,-,N/A,,Clear,0,2013-10-21 22:53:00
5:53 PM,57.9,28.0,32,30.07,10.0,SW,4.6,-,N/A,,Clear,220,2013-10-21 23:53:00
6:53 PM,52.0,30.0,43,30.10,10.0,SW,4.6,-,N/A,,Clear,220,2013-10-22 00:53:00
7:53 PM,50.0,28.9,44,30.11,10.0,SSW,5.8,-,N/A,,Clear,200,2013-10-22 01:53:00
8:53 PM,48.0,28.9,48,30.11,10.0,SW,8.1,-,N/A,,Clear,220,2013-10-22 02:53:00
9:53 PM,46.9,28.0,48,30.11,10.0,SW,9.2,-,N/A,,Clear,220,2013-10-22 03:53:00
10:53 PM,39.9,28.9,65,30.13,10.0,WSW,6.9,-,N/A,,Clear,240,2013-10-22 04:53:00
11:53 PM,43.0,28.0,56,30.12,10.0,West,12.7,-,N/A,,Clear,270,2013-10-22 05:53:00